User: anonymous   Login
Location: Hale Hill Observatory
(39.3806°N, 86.8431°W)
Time: 23:59:28
(UTC-04:00)
Language:

Cosmos 990 Rocket - Orbit

View from above orbital plane
View from above orbital plane
View from above satellite
View from above satellite

Ground track
Ground track

The orbit data is extracted from the following two-line orbital elements,

1 10677U 78019B   17290.51326133 +.00000096 +00000-0 +38776-4 0  9999
2 10677 074.0377 075.4102 0014354 121.3289 238.9274 14.40038018079845
Epoch (UTC): 17 October 2017 12:19:05
Eccentricity: 0.0014354
inclination: 74.0377°
perigee height: 748 km
apogee height: 768 km
right ascension of ascending node: 75.4102°
argument of perigee: 121.3289°
revolutions per day: 14.40038018
mean anomaly at epoch: 238.9274°
orbit number at epoch: 7984

The dashed part of the orbit path shows where the satellite is in the earth's shadow,  

DLR